Location: Baia de Cri?
(46.1667°N, 22.7167°E)
Time: 08:02:56
(UTC+00:00)

FengYun 1-2 T - Pass Details

Date: 15 January 2026
Orbit: 844 x 880 km, 98.8° (Epoch: 9 February)

Event Time Altitude Azimuth Distance (km) Brightness Sun altitude
Rises 03:40:14 0° 11° (N) 3,461 7.5 -25.0°
Reaches altitude 10° 03:42:40 10° 8° (N) 2,514 6.7 -24.6°
Maximum altitude 03:48:09 62° 290° (WNW) 966 4.1 -23.6°
Enters shadow 03:49:55 41° 230° (SW) 1,216 4.7 -23.3°
